Regional Weather Roundup
Issued by NWS Wakefield, VA

Home | Current Version | Previous Version | Text Only | Print | Product List | Glossary On
Versions: 1 2 3 4 5 6 7 8 9 10 11 12 13 14 15 16 17 18 19 20 21 22 23 24 25 26 27 28 29 30 31 32 33 34 35 36 37 38 39 40 41 42 43 44 45 46 47 48 49 50
000
ASUS41 KAKQ 232015
RWRAKQ

REGIONAL WEATHER ROUNDUP
NATIONAL WEATHER SERVICE WAKEFIELD VA
400 PM EDT SUN APR 23 2017

Note: "fair" indicates few or no clouds below 12,000 feet with no
significant weather and/or obstructions to visibility. * = Denotes
station may not report precipitation (e.g., rain,snow,etc.),
thunder or fog.

VAZ042-051-052>054-056-232100-
NORTHERN VIRGINIA

CITY           SKY/WX    TMP DP  RH WIND       PRES   REMARKS
WASH NATIONAL  CLOUDY    61  42  49 E3        30.09F
DULLES         CLOUDY    58  42  55 E7        30.08F
FORT BELVOIR   CLOUDY    60  42  52 E3        30.09F
QUANTICO       PTSUNNY   59  46  62 N7        30.10F
FREDERICKSBRG* PTSUNNY   58  46  63 NE8       30.08F
STAFFORD*      CLOUDY    56  46  68 E5        30.13S
WARRENTON      PTSUNNY   60  39  47 E7        30.08F
CULPEPER*      CLOUDY    58  43  58 CALM      30.10F
MANASSAS*        N/A     59  42  53 SE5       30.09F
LEESBURG*      CLOUDY    61  43  51 SE7       30.08F
WINCHESTER     CLOUDY    57  41  54 SE5       30.07F
FRONT ROYAL*   CLOUDY    59  45  58 CALM      30.06F
LURAY*         PTCLDY    57  43  58 N6        30.07F
$$

VAZ048-049-060>072-079>083-232100-
CENTRAL AND SOUTH CENTRAL VIRGINIA

CITY           SKY/WX    TMP DP  RH WIND       PRES   REMARKS
RICHMOND       CLOUDY    56  47  71 NE8       30.07F
CHESTERFIELD*  CLOUDY   N/A N/A N/A E6        30.08F
PETERSBURG*    LGT RAIN  55  48  77 E7        30.08S
HANOVER        MOSUNNY   57  43  59 VRB3      30.09F
TAPPAHANNOCK*  PTSUNNY   58  42  53 E6        30.09F
QUINTON*       CLOUDY    57  48  71 NE5       30.08S
CHARLOTTSVILLE CLOUDY    57  41  55 E7        30.08F
GORDONSVILLE*  PTCLDY    55  44  65 NE6       30.08F
ORANGE*        CLOUDY    54  43  66 CALM      30.08F
LOUISA*        MOSUNNY   61  46  59 NE6       30.07F
BUMPASS*       MOCLDY    57  45  64 E7        30.08F
FARMVILLE*     RAIN      54  51  89 NE5       30.06S
CREWE*         CLOUDY    52  52 100 E3        30.07S
FORT PICKETT*  CLOUDY    52  49  88 NE7       30.07S
CHASE CITY*    CLOUDY    50  49  95 NE6       30.05F
CLARKSVILLE*   CLOUDY    50  50 100 NE3       30.04F
SOUTH HILL*    CLOUDY    51  51 100 NE3       30.10F
LAWRENCEVILLE* CLOUDY    53  51  95 NE6       30.05F
EMPORIA*       RAIN      52  52 100 N3        30.07S
$$

VAZ088>098-232100-
SOUTHEAST VIRGINIA

CITY           SKY/WX    TMP DP  RH WIND       PRES   REMARKS
NORFOLK        CLOUDY    57  50  77 NE12      30.04F
VIRGINIA BEACH CLOUDY    54  49  83 NE12      30.04F
NORFOLK NAVAL  DRIZZLE   56  51  84 NE14      30.06F
WEST POINT*    PTSUNNY   58  48  69 NE7       30.10R
SALUDA*        FAIR      56  49  78 E6        30.08S
NEWPORT NEWS   LGT RAIN  55  51  86 NE6       30.07S
LANGLEY AFB    LGT RAIN  55  52  88 E17       30.06S
FORT EUSTIS    LGT RAIN  56  51  84 NE6       30.04F
WILLIAMSBURG*  CLOUDY    59  54  82 CALM      30.08S
HR EXEC AP*    CLOUDY    55  48  76 E9        30.03F
FRANKLIN*      LGT RAIN  54  51  91 NE8       30.05F
US460-WAKEFLD  LGT RAIN  54  53  97 NE5       30.06F FOG
$$

VAZ020-022-025-037-045-232100-
WEST CENTRAL AND SOUTHWEST VIRGINIA

CITY           SKY/WX    TMP DP  RH WIND       PRES   REMARKS
STAUNTON*      MOSUNNY   55  42  62 CALM      30.08F
WAYNESBORO*    CLOUDY    54  42  64 E3        30.07S
HOT SPRINGS VA CLOUDY    45  30  57 E9        30.04S
LYNCHBURG      LGT RAIN  49  45  86 NE6       30.07F
DANVILLE       LGT RAIN  50  50 100 NE13      30.03F
SOUTH BOSTON*  CLOUDY    51  50  95 NE6       30.05F
MARTINSVILLE   RAIN      48  46  93 NE7       30.05S
ROANOKE        RAIN      49  47  93 SE8       30.07F
BLACKSBURG     RAIN      46  44  91 E12       30.05F
DUBLIN*        RAIN      47  43  86 E7        30.03F
MARION*        RAIN      45  44  95 E13       30.01F
HILLSVILLE*    RAIN      44  44 100 NE3       29.97F
RICHLANDS*     RAIN      47  46  95 SE3       29.94S
WISE*          RAIN      50  50 100 E3        29.92S
ABINGDON*      RAIN      49  48  95 E17G23    29.91F
$$

MDZ021>025-VAZ099-100-232100-
SOUTHERN MARYLAND AND THE DELMARVA PENINSULA

CITY           SKY/WX    TMP DP  RH WIND       PRES   REMARKS
PATUXENT RIVER CLOUDY    57  48  72 N3        30.08F
BAY BRIDGE APT MOSUNNY   57  45  62 NW6       30.09F
LEONARDTOWN    CLOUDY    55  45  67 E3        30.09F
DOVER          CLOUDY    56  53  87 E9        30.09F
GEORGETOWN     CLOUDY    59  45  59 MISG      30.10F
EASTON         CLOUDY    63  45  51 E8        30.11F
CAMBRIDGE      PTSUNNY   59  45  58 E6        30.08F
SALISBURY      CLOUDY    60  46  59 NE14      30.08F
OCEAN CITY     CLOUDY    53  46  77 NE10      30.11F
WALLOPS ISLAND CLOUDY    55  49  80 E17       30.09F
ACCOMACK*      CLOUDY    57  48  72 E12       30.07F
$$

NCZ012>017-030>032-232100-
NORTH CENTRAL AND EASTERN NORTH CAROLINA

CITY           SKY/WX    TMP DP  RH WIND       PRES   REMARKS
ROANOKE RAPIDS RAIN      52  52 100 NE9       30.03F
RALEIGH        LGT RAIN  54  52  93 NE14      29.99F
ELIZABETH CITY CLOUDY    57  53  86 NE21G26   30.02F
AHOSKIE*       LGT RAIN  55  51  87 N7        30.03F
EDENTON*       CLOUDY    60  54  81 NE8G18    30.01F
CURRITUCK*     NOT AVBL
KILL DEVIL HLS CLOUDY    56  53  88 N6G22     29.99F
MANTEO         CLOUDY    56  52  86 NE16G23   30.01F
CAPE HATTERAS  CLOUDY    63  56  78 NE14G25   29.96F HAZE
TARBORO*       NOT AVBL
GOLDSBORO      CLOUDY    58  58 100 NE13      29.95F
WASHINGTON     CLOUDY    57  55  92 NE9       29.99F
GREENVILLE     CLOUDY    59  54  82 NE13G18   30.01F
NEW BERN       LGT RAIN  60  58  92 NE13      29.97F
WILMINGTON     CLOUDY    65  63  93 NE12      29.92F
$$

VAZ048-232100-
ELSEWHERE

CITY           SKY/WX    TMP DP  RH WIND       PRES   REMARKS
HARRISBURG PA  PTSUNNY   65  45  48 CALM      30.06F
BALTIMORE      CLOUDY    58  42  55 E7        30.08F
ANNAPOLIS      CLOUDY    60  43  53 CALM      30.09F
ANDREWS AFB    PTSUNNY   58  42  55 E8        30.08F
PHILADELPHIA   CLOUDY    65  40  39 CALM      30.07F
HENDERSON NC   LGT RAIN  49  47  95 NE7G17    30.02F
GREENSBORO     RAIN      50  50 100 NE13      29.98S FOG
ROCKY MOUNT    CLOUDY    57  53  86 NE12      30.00F
$$

VAZ100-232100-
MARINE

STATION/POSITION TIME  TEMP    WIND        PRES    WAVE   SWELL
                       AIR SEA DIR/SP/G            HT/PER HT/PER
                 (UTC) (F)     (DEG/KT/KT) (MB)    (FT/S) (FT/S)
CAPE MAY NJ      1948   52 56  110/ 12/ 15 1018.9F
LEWES DE         1942   52 56  110/ 12/ 15 1019.3F
15NM E FENWICK I 1950   50 52   60/ 12/ 14 1019.9F   4/11   3/11
OCEAN-CITY-INLET 1942   53 57   80/  8/ 11 1019.9F
WACHAPREAGUE VA  1948   54 62   40/ 15/ 18 1017.8F
THOMAS POINT MD  2000   56 58  360/  7/  7   N/A
GOOSES REEF MD   2000   56 55  340/  8/ 10 1019.4    1
COVE POINT MD    1948   54     340/  8/ 11 1019.4F
SOLOMONS ISLAND  1948   57 62  110/  4/  5   N/A
BISHOPS HEAD MD  1948   59 62   60/  6/ 11 1018.8F
PINEY POINT MD   1948           80/  4/  5   N/A
POTOMAC MD       2000   57 62   60/  8/ 10 1017.8    0
CAMBRIDGE MD     1948   59 63   80/  7/ 10 1018.0F
LEWISETTA VA     1948   56 63  100/  4/  6 1018.6F
RAPPAHANNOCK LGT 1948           70/ 12/ 14 1018.9F
STINGRAY PT      1950   57      60/ 10/ 12 1018.4F
YORK RVR RNG VA  1948   56      90/ 13/ 14 1017.5F
YORKTOWN VA      1948   56 64   80/ 11/ 13 1017.9F
JAMESTOWN VA     2000   57 69   50/  4/  6   N/A     0
DOMINION TERM VA 1948   56      70/ 12/ 16 1018.0F
KIPTOPEKE VA     1948      61   70/  8/ 14   N/A
CHES BAY BRIDGE  1948   55 62   70/ 20/ 22 1017.1F
CAPE HENRY VA    1948   54      50/ 18/ 21   N/A
WILLOUBY STN VA  1948   56      70/ 16/ 18 1018.6F
S CRANEY ISL VA  1948   56      60/ 15/ 17 1017.3F
CAPE HENRY BUOY  1942      57                N/A     5/ 6   2/11
1ST LANDING BUOY 2000   56 62              1017.7    3/ 4
CAPE CHARLES BUO 1951      58                N/A     5/12   2/12
64NM E OF VA BCH 1950   55 53   40/ 17/ 19 1016.9F   5/ 7   3/10
DUCK PIER NC     1948   55 63   30/ 23/ 26 1015.6F
44100 DUCK FRF   1905      56                N/A     6/11   2/11
44056 DUCK FRF   1930      60                N/A     5/ 6   2/11
OREGON INLET NC  1936   56 59   20/ 15/ 23 1015.7F
HATTERAS NC      1948   61 68   30/ 18/ 22 1014.4F
DIAMOND SHLS NC  1950   66 76   20/ 19/ 23 1013.5F   6/11   3/11
CAPE LOOKOUT NC  2000   63      30/ 21/ 23 1013.6F
$$



USA.gov is the U.S. government's official web portal to all federal, state and local government web resources and services.